This is the latest recevied weather packets stored in our database for station/object DM8MH-13. If no packets are shown the sender has not sent any weather packets the latest 10 day(s).
| Time | Temp. | Humidity | Pressure | Rain* | Wind** | Luminosity | Snow |
|---|---|---|---|---|---|---|---|
| 1777767070 | 12.22° C | 70% | 1014.4 hPa | 0 mm | - | 0 W/m² | - |
| 1777766470 | 12.78° C | 69% | 1014.4 hPa | 0 mm | - | 0 W/m² | - |
| 1777765870 | 12.78° C | 68% | 1014.6 hPa | 0 mm | - | 0 W/m² | - |
| 1777765270 | 13.33° C | 69% | 1014.6 hPa | 0 mm | - | 0 W/m² | - |
| 1777764671 | 13.33° C | 70% | 1014.8 hPa | 0 mm | - | 0 W/m² | - |
| 1777764073 | 13.89° C | 68% | 1014.8 hPa | 0 mm | - | 0 W/m² | - |
| 1777763470 | 14.44° C | 66% | 1014.9 hPa | 0 mm | - | 0 W/m² | - |
| 1777762873 | 14.44° C | 64% | 1014.9 hPa | 0 mm | - | 0 W/m² | - |
| 1777762274 | 14.44° C | 64% | 1014.8 hPa | 0 mm | - | 0 W/m² | - |
| 1777761674 | 14.44° C | 64% | 1014.9 hPa | 0 mm | - | 0 W/m² | - |
| 1777761073 | 14.44° C | 65% | 1014.7 hPa | 0 mm | - | 0 W/m² | - |
| 1777760473 | 15° C | 65% | 1014.8 hPa | 0 mm | - | 0 W/m² | - |
| 1777759874 | 15° C | 64% | 1014.8 hPa | 0 mm | - | 0 W/m² | - |
| 1777759273 | 15° C | 62% | 1014.8 hPa | 0 mm | - | 0 W/m² | - |
| 1777758674 | 15° C | 62% | 1014.8 hPa | 0 mm | - | 0 W/m² | - |
| 1777758074 | 15.56° C | 62% | 1014.9 hPa | 0 mm | - | 0 W/m² | - |
| 1777757474 | 16.11° C | 61% | 1015 hPa | 0 mm | - | 0 W/m² | - |
| 1777756874 | 16.67° C | 60% | 1015.1 hPa | 0 mm | - | 0 W/m² | - |
| 1777756274 | 17.22° C | 59% | 1015.1 hPa | 0 mm | - | 0 W/m² | - |
| 1777755674 | 17.78° C | 58% | 1015.2 hPa | 0 mm | - | 0 W/m² | - |
| 1777755073 | 17.78° C | 57% | 1015.2 hPa | 0 mm | - | 0 W/m² | - |
| 1777754473 | 18.89° C | 55% | 1015.3 hPa | 0 mm | - | 0 W/m² | - |
| 1777753874 | 18.89° C | 54% | 1015.4 hPa | 0 mm | - | 0 W/m² | - |
| 1777753273 | 19.44° C | 54% | 1015.5 hPa | 0 mm | - | 0 W/m² | - |
| 1777752673 | 19.44° C | 52% | 1015.4 hPa | 0 mm | - | 0 W/m² | - |
* Rain latest hour (hover to see other rain measurements)
** Current wind speed in m/s (hover to see current wind gust speed)